Weather History for Weatherford, OK

Change the Weather History Date:

Friday, December 20, 2013

  Actual Average (KJWG) Record (KJWG)
Temperature  
Mean Temperature 38 °F -  
Max Temperature 51 °F 45 °F 73 °F (1966)
Min Temperature 26 °F 25 °F 2 °F (1983)
Degree Days  
Heating Degree Days 26    
Moisture  
Dew Point 25 °F    
Average Humidity 76    
Maximum Humidity 94    
Minimum Humidity 60    
Precipitation  
Precipitation 0.00 in - - ()
Sea Level Pressure  
Sea Level Pressure 29.87 in    
Wind  
Wind Speed 12 mph (North)    
Max Wind Speed 24 mph    
Max Gust Speed 32 mph    
Visibility 9 miles    
Events Snow    
Averages and records for this station are not official NWS values.
T = Trace of Precipitation, MM = Missing Value Source: NWS Daily Summary

Daily Weather History Graph

Daily Weather History Graph

Search for Another Location

Airport:

Trip Planner

Search our weather history database for the weather conditions in past years. The results will help you decide how hot, cold, wet, or windy it might be!

Date:

Astronomy

Dec. 20, 2013 Rise Set
Actual Time 7:39 AM CST 5:25 PM CST
Civil Twilight 7:11 AM CST 5:53 PM CST
Nautical Twilight 6:39 AM CST 6:25 PM CST
Astronomical Twilight 6:08 AM CST 6:56 PM CST
Moon 8:41 PM CST (12/20) 9:39 AM CST (12/20)
Length of Visible Light 10h 42m
Length of Day
9h 45m
Waning Gibbous, 90% of the Moon is Illuminated
Dec 20
Waning Gibbous
Dec 25
Last Quarter
Jan 1
New
Jan 7
First Quarter
Jan 15
Full

Hourly Weather History & Observations

Time (CST) Temp. Windchill Dew Point Humidity Pressure Visibility Wind Dir Wind Speed Gust Speed Precip Events Conditions
12:15 AM 51.8 °F - 50.0 °F 94% 29.66 in 10.0 mi SSW 10.4 mph - N/A   Clear
12:35 AM 51.8 °F - 48.2 °F 88% 29.66 in 10.0 mi SSW 9.2 mph - N/A   Clear
12:55 AM 51.8 °F - 48.2 °F 88% 29.66 in 10.0 mi SSW 11.5 mph - N/A   Clear
1:15 AM 51.8 °F - 48.2 °F 88% 29.66 in 10.0 mi SSW 11.5 mph 18.4 mph N/A   Clear
1:35 AM 51.8 °F - 48.2 °F 88% 29.67 in 10.0 mi SSW 11.5 mph - N/A   Clear
1:55 AM 50.0 °F - 46.4 °F 87% 29.72 in 10.0 mi WNW 13.8 mph 24.2 mph N/A   Clear
2:15 AM 50.0 °F - 46.4 °F 87% 29.73 in 10.0 mi WNW 5.8 mph 10.4 mph N/A   Clear
2:35 AM 41.0 °F 31.4 °F 35.6 °F 81% 29.76 in 10.0 mi NNW 21.9 mph 31.1 mph N/A   Clear
2:55 AM 35.6 °F 23.7 °F 32.0 °F 87% 29.80 in 10.0 mi North 24.2 mph 31.1 mph N/A   Mostly Cloudy
3:15 AM 33.8 °F 22.5 °F 32.0 °F 93% 29.82 in 10.0 mi North 19.6 mph 27.6 mph N/A   Overcast
3:35 AM 32.0 °F 19.8 °F 30.2 °F 93% 29.83 in 10.0 mi North 20.7 mph 32.2 mph N/A   Overcast
3:55 AM 32.0 °F 20.1 °F 30.2 °F 93% 29.84 in 7.0 mi North 19.6 mph 26.5 mph N/A   Overcast
4:15 AM 32.0 °F 19.8 °F 28.4 °F 87% 29.84 in 7.0 mi North 20.7 mph 28.8 mph N/A   Overcast
4:35 AM 32.0 °F 20.1 °F 28.4 °F 87% 29.87 in 7.0 mi North 19.6 mph 25.3 mph N/A   Overcast
4:55 AM 32.0 °F 20.5 °F 28.4 °F 87% 29.87 in 10.0 mi North 18.4 mph 25.3 mph N/A   Overcast
5:15 AM 32.0 °F 21.2 °F 28.4 °F 87% 29.88 in 10.0 mi North 16.1 mph 19.6 mph N/A   Overcast
5:35 AM 32.0 °F 21.2 °F 26.6 °F 80% 29.89 in 10.0 mi North 16.1 mph 21.9 mph N/A   Overcast
5:55 AM 30.2 °F 20.2 °F 26.6 °F 86% 29.91 in 10.0 mi North 12.7 mph - N/A   Overcast
6:15 AM 30.2 °F 18.9 °F 24.8 °F 80% 29.92 in 10.0 mi North 16.1 mph 23.0 mph N/A   Overcast
6:35 AM 30.2 °F 19.3 °F 24.8 °F 80% 29.92 in 10.0 mi North 15.0 mph - N/A   Overcast
6:55 AM 30.2 °F 19.3 °F 23.0 °F 75% 29.92 in 10.0 mi North 15.0 mph 20.7 mph N/A   Overcast
7:15 AM 30.2 °F 20.8 °F 23.0 °F 75% 29.92 in 10.0 mi North 11.5 mph - N/A   Overcast
7:35 AM 28.4 °F 17.5 °F 21.2 °F 74% 29.92 in 10.0 mi NNW 13.8 mph - N/A   Overcast
7:55 AM 28.4 °F 16.6 °F 21.2 °F 74% 29.94 in 10.0 mi North 16.1 mph 19.6 mph N/A   Overcast
8:15 AM 28.4 °F 17.0 °F 19.4 °F 69% 29.94 in 10.0 mi North 15.0 mph - N/A   Overcast
8:35 AM 28.4 °F 17.0 °F 19.4 °F 69% 29.96 in 10.0 mi North 15.0 mph 19.6 mph N/A   Overcast
8:55 AM 28.4 °F 16.2 °F 19.4 °F 69% 29.94 in 10.0 mi North 17.3 mph 23.0 mph N/A   Overcast
9:15 AM 28.4 °F 16.2 °F 17.6 °F 64% 29.94 in 10.0 mi North 17.3 mph - N/A   Overcast
9:35 AM 26.6 °F 14.3 °F 17.6 °F 69% 29.96 in 10.0 mi North 16.1 mph 21.9 mph N/A   Overcast
9:55 AM 26.6 °F 13.8 °F 17.6 °F 69% 29.97 in 10.0 mi NNW 17.3 mph 21.9 mph N/A   Overcast
10:15 AM 26.6 °F 14.7 °F 15.8 °F 64% 29.95 in 10.0 mi North 15.0 mph 23.0 mph N/A   Overcast
10:35 AM 26.6 °F 14.7 °F 17.6 °F 69% 29.98 in 10.0 mi North 15.0 mph - N/A   Overcast
10:55 AM 26.6 °F 15.7 °F 17.6 °F 69% 29.98 in 10.0 mi North 12.7 mph - N/A   Overcast
11:15 AM 26.6 °F 16.8 °F 17.6 °F 69% 29.99 in 10.0 mi North 10.4 mph - N/A   Overcast
11:35 AM 26.6 °F 17.5 °F 17.6 °F 69% 29.99 in 10.0 mi NNW 9.2 mph - N/A   Overcast
11:55 AM 26.6 °F 16.2 °F 17.6 °F 69% 29.99 in 10.0 mi North 11.5 mph 16.1 mph N/A   Overcast
12:15 PM 26.6 °F 15.7 °F 17.6 °F 69% 29.96 in 10.0 mi North 12.7 mph - N/A   Overcast
12:35 PM 28.4 °F 18.5 °F 17.6 °F 64% 29.97 in 10.0 mi NNW 11.5 mph - N/A   Overcast
12:55 PM 28.4 °F 18.0 °F 17.6 °F 64% 29.94 in 10.0 mi North 12.7 mph 17.3 mph N/A   Mostly Cloudy
1:15 PM 28.4 °F 18.5 °F 17.6 °F 64% 29.92 in 10.0 mi North 11.5 mph - N/A   Scattered Clouds
1:35 PM - - - N/A% 29.92 in - NNW 12.7 mph - N/A   Unknown
1:55 PM 28.4 °F 19.1 °F 17.6 °F 64% 29.91 in 10.0 mi NNE 10.4 mph - N/A   Scattered Clouds
2:15 PM 28.4 °F 23.3 °F 17.6 °F 64% 29.92 in 10.0 mi NNE 4.6 mph - N/A   Scattered Clouds
2:35 PM 28.4 °F 19.7 °F 17.6 °F 64% 29.92 in 10.0 mi NNW 9.2 mph - N/A   Mostly Cloudy
2:55 PM 30.2 °F 24.3 °F 17.6 °F 60% 29.91 in 10.0 mi NNE 5.8 mph - N/A   Overcast
3:15 PM 30.2 °F 24.3 °F 17.6 °F 60% 29.92 in 10.0 mi NNE 5.8 mph - N/A   Overcast
3:35 PM 30.2 °F 23.4 °F 17.6 °F 60% 29.90 in 10.0 mi North 6.9 mph - N/A   Mostly Cloudy
3:55 PM 30.2 °F 24.3 °F 19.4 °F 64% 29.90 in 10.0 mi North 5.8 mph - N/A   Mostly Cloudy
4:15 PM 32.0 °F 27.5 °F 19.4 °F 60% 29.89 in 10.0 mi NNE 4.6 mph - N/A   Mostly Cloudy
4:35 PM 32.0 °F 26.4 °F 19.4 °F 60% 29.88 in 10.0 mi NE 5.8 mph - N/A   Scattered Clouds
4:55 PM 32.0 °F 24.8 °F 19.4 °F 60% 29.86 in 10.0 mi North 8.1 mph - N/A   Mostly Cloudy
5:15 PM 32.0 °F 24.2 °F 19.4 °F 60% 29.85 in 10.0 mi NE 9.2 mph - N/A   Mostly Cloudy
5:35 PM 32.0 °F 24.8 °F 19.4 °F 60% 29.86 in 10.0 mi North 8.1 mph - N/A   Mostly Cloudy
5:55 PM 32.0 °F 24.8 °F 19.4 °F 60% 29.85 in 10.0 mi NNE 8.1 mph - N/A   Mostly Cloudy
6:15 PM 32.0 °F 26.4 °F 19.4 °F 60% 29.87 in 10.0 mi NE 5.8 mph - N/A   Scattered Clouds
6:35 PM 32.0 °F 26.4 °F 19.4 °F 60% 29.87 in 10.0 mi NE 5.8 mph - N/A   Mostly Cloudy
6:55 PM 32.0 °F 25.6 °F 19.4 °F 60% 29.86 in 10.0 mi NE 6.9 mph - N/A   Overcast
7:15 PM 30.2 °F 23.4 °F 23.0 °F 75% 29.85 in 10.0 mi East 6.9 mph - N/A   Overcast
7:35 PM 30.2 °F 22.6 °F 23.0 °F 75% 29.84 in 10.0 mi NE 8.1 mph - N/A   Overcast
7:55 PM 30.2 °F 22.6 °F 23.0 °F 75% 29.85 in 10.0 mi ENE 8.1 mph - N/A   Overcast
8:15 PM 30.2 °F 22.6 °F 24.8 °F 80% 29.86 in 7.0 mi East 8.1 mph - N/A   Overcast
8:35 PM 30.2 °F 21.3 °F 24.8 °F 80% 29.87 in 5.0 mi ESE 10.4 mph - N/A   Overcast
8:55 PM 30.2 °F 20.8 °F 26.6 °F 86% 29.86 in 4.0 mi ESE 11.5 mph 16.1 mph N/A Snow Light Snow
9:15 PM 28.4 °F 23.3 °F 26.6 °F 93% 29.87 in 3.0 mi NE 4.6 mph - N/A Snow Light Snow
9:35 PM 28.4 °F 22.2 °F 26.6 °F 93% 29.85 in 5.0 mi ESE 5.8 mph - N/A   Mostly Cloudy
9:55 PM 30.2 °F 24.3 °F 28.4 °F 93% 29.79 in 4.0 mi ENE 5.8 mph 9.2 mph N/A   Overcast
10:15 PM 30.2 °F 22.6 °F 28.4 °F 93% 29.87 in 7.0 mi NW 8.1 mph - N/A   Overcast
10:35 PM 30.2 °F 24.3 °F 28.4 °F 93% 29.84 in 10.0 mi NNW 5.8 mph - N/A   Overcast
10:55 PM 30.2 °F 22.6 °F 28.4 °F 93% 29.86 in 7.0 mi NNW 8.1 mph - N/A   Overcast
11:15 PM 30.2 °F 21.9 °F 28.4 °F 93% 29.83 in 7.0 mi North 9.2 mph - N/A   Overcast
11:35 PM 30.2 °F 21.9 °F 28.4 °F 93% 29.81 in 7.0 mi North 9.2 mph - N/A   Overcast
11:55 PM 30.2 °F 21.9 °F 28.4 °F 93% 29.80 in 5.0 mi North 9.2 mph - N/A   Overcast